OPS 4682 DEB, 38399

Orbit data source: Space-Track

OPS 4682 DEB, 38399 is space debris in LEO originally from a launch on Sat, 03 Apr 1965 UTC launched from the Air Force Western Test Range (AFWTR). Debris objects in space refer to the collection of defunct objects orbiting the Earth. Examples of debris include non-operational satellites, rocket bodies, and fragments generated from explosions, collisions, or faulty payload assembly.

Loading next visibility...
Identifier
38399, 1965-027DC
Orbit
LEO
Country
Flag of USUS
Related business
Manufacturer
Unknown
Mission
Spacecraft
Bus & Motor
Unknown
Mass
Unknown
Launch date (UTC)
1965-04-03 (61 years ago)
Launch vehicle
Unknown
Launch site
Air Force Western Test Range (AFWTR)
Object type
Payload
Rocket body
Debris
Shape & HBR
Unknown shape, 0.1 m
Radar Cross Section
Small (<0.1 m²)

Expand to show TLE details & history
Last TLE update: 13 hours ago

TLE from 13 hours ago
0 OPS 4682 DEB
1 38399U 65027DC  25301.62995253  .00000185  00000-0  61618-3 0  9993
2 38399  90.2542  11.8616 0025019  14.3959 345.7869 12.96742433632742
Epoch: 2025-10-28T15:07Z
TLE epoch observation values (Epoch: 2025-10-28T15:07:07.898Z)
Latitude
Longitude
107.864°
Altitude
1,259.194 km
Speed
7.234 km/s
True Right ascension
00h 47m 26s
True Declination
0° 00' 00"
Sunlit
Object was in full shadow at epoch
Visualization orbit readout
Latitude
Unknown
Longitude
Unknown
Altitude
Unknown
Speed
Unknown
Apparent Right ascension
Unknown
Apparent Declination
Unknown
Sunlit
N/A
Visualization observer readout
Local Sidereal Time
23:54:07
Azimuth
Unknown
Elevation
Unknown
Doppler factor
Unknown
Orbital elements
Apogee altitude
1,291.148 km
Perigee altitude
1,252.869 km
Semi-major axis
7,650.146 km
Eccentricity
0.0025
Inclination
90.2542°
RAAN
11.8616°
Arg. of periapsis
14.3959°
True anomaly
345.71629°
Mean anomaly
345.7869°
Eccentric anomaly
345.75162°
Mean motion
3.24368 °/min
Orbital period
110.98 mins
BSTAR
0.00061618
Loading maneuver chart data...
Computing Atmospheric mass density...
Loading historical data...
Loading historical data...
Loading historical data...
Loading historical data...
Loading historical data...
Loading historical data...
Loading historical data...

Documentation

Showing up to 5 results
|